Location: Bronnen
(48.9151°N, 10.0365°E)
Time: 04:28:08
(UTC+00:00)

Daily predictions for brighter satellites

Satellite Brightness Start Highest point End
(mag) Time Altitude Azimuth Time Altitude Azimuth Time Altitude Azimuth
Resurs 1-4 Rocket 4.1 00:01:03 10° NE 00:04:32 18° E 00:04:50 17° E
Cosmos 1464 Rocket 4.1 00:00:40 10° NNW 00:06:34 72° WNW 00:06:34 72° WNW
Cosmos 909 Rocket 4.4 00:06:56 73° SSW 00:07:48 85° SE 00:17:02 10° NE
Cosmos 2360 Rocket 3.0 00:09:55 42° E 00:09:55 42° E 00:14:19 10° NE
Aureole 3 Rocket 4.4 00:06:33 10° N 00:10:25 40° NNE 00:10:25 40° NNE
Cosmos 2263 Rocket 4.3 00:09:10 10° WNW 00:10:39 15° WNW 00:10:39 15° WNW
Lacrosse 4 Rocket 3.3 00:15:02 27° NNE 00:15:02 27° NNE 00:17:02 10° NNE
NOSS 3-4 (A) 4.4 00:16:26 31° E 00:16:26 31° E 00:20:37 10° NE
NOSS 3-4 (C) 4.4 00:16:29 31° E 00:16:29 31° E 00:20:40 10° NE
Cosmos 1570 Rocket 4.5 00:17:04 58° NNE 00:17:04 58° NNE 00:21:17 10° NNE
USA 32 4.5 00:17:37 59° NE 00:17:37 59° NE 00:22:00 10° N
Cosmos 2322 Rocket 2.5 00:19:32 61° ENE 00:19:32 61° ENE 00:24:20 10° NNE
Cosmos 2034 Rocket 3.9 00:19:28 10° NNW 00:25:21 75° WNW 00:25:21 75° WNW
IDEFIX/ARIANE 42P 3.9 00:21:14 10° NNE 00:25:44 30° E 00:25:44 30° E
NOSS 3-2 (C) 4.0 00:19:07 10° NW 00:26:30 64° SW 00:26:40 64° SW
Cosmos 2219 Rocket 3.3 00:27:21 33° E 00:27:21 33° E 00:31:57 10° NE
SL-16 R/B 2.4 00:35:17 63° NW 00:35:17 63° NW 00:40:42 10° NNE
Cosmos 1844 4.3 00:29:28 10° NNW 00:33:46 48° WNW 00:33:46 48° WNW
USA 267 3.3 00:42:48 57° W 00:42:48 57° W 00:48:17 10° WNW
H-2A R/B 4.4 00:39:59 10° NNW 00:41:37 15° NW 00:41:37 15° NW
GEOS 3 Rocket 4.3 00:49:53 45° WNW 00:49:53 45° WNW 00:53:35 10° NW
Meteor 1-26 Rocket 4.3 00:48:58 68° ESE 00:49:08 68° E 00:54:53 10° NNE
Cosmos 1634 Rocket 3.9 00:45:05 10° N 00:51:26 88° E 00:52:05 74° SSE
ADEOS II 3.5 00:47:39 10° NE 00:52:07 27° E 00:53:12 25° ESE
Meteor 2-16 Rocket 4.4 00:52:37 65° W 00:52:43 65° WNW 00:58:49 10° N
Timation 2 Rocket 4.1 00:46:54 10° NW 00:53:00 61° W 00:53:00 61° W
SL-16 R/B 3.7 00:51:35 14° SE 00:56:32 40° ENE 01:02:17 10° N
Cosmos 1844 Rocket 4.0 00:55:07 10° NW 00:58:03 27° WNW 00:58:03 27° WNW
Cosmos 1980 Rocket 4.3 00:57:35 13° WNW 01:00:12 17° NW 01:03:52 10° N
CZ-2D R/B 2.6 00:58:30 10° NNE 01:03:41 49° E 01:04:21 47° ESE
Meteor 1-5 Rocket 4.3 00:58:46 10° NNW 01:04:15 66° W 01:04:15 66° W
Cosmos 1900 4.4 01:08:34 10° NW 01:13:41 75° NE 01:14:28 61° ESE
Cosmos 1842 Rocket 4.4 01:13:46 44° E 01:13:50 44° E 01:18:03 10° NNE
Cosmos 1943 Rocket 4.2 01:13:30 10° NNW 01:18:16 27° NE 01:23:03 10° ESE
COSMOS 2428 3.4 01:22:41 39° SE 01:23:55 45° ESE 01:29:19 10° NE
USA 238 DEB 4.1 01:18:46 10° NW 01:25:46 48° WSW 01:26:01 48° SW
USA 238 4.1 01:18:51 10° NW 01:25:53 49° WSW 01:26:15 48° SW
IRIDIUM 104 4.3 01:21:05 10° N 01:26:20 79° E 01:27:10 63° SSE
Meteor 1-11 Rocket 4.5 01:24:34 10° N 01:30:01 49° ENE 01:34:01 18° SE
Cosmos 2237 Rocket 4.1 01:29:23 15° SE 01:32:18 22° E 01:36:35 10° NE
CZ-2C R/B 2.5 01:31:22 57° S 01:32:33 87° WSW 01:37:59 10° NNW
Cosmos 489 Rocket 4.4 01:27:07 10° NNW 01:33:19 61° WSW 01:34:06 56° SW
IRIDIUM 114 4.2 01:30:14 10° N 01:35:30 87° W 01:36:18 65° S
BREEZE-M DEB (TANK) 4.3 01:37:59 15° E 01:37:59 15° E 01:38:25 10° E
Cosmos 1867 3.6 01:31:17 10° NW 01:36:49 79° NE 01:42:17 10° SE
CZ-2C R/B 3.4 01:32:51 10° NNE 01:37:52 59° E 01:39:23 42° SSE
NPP 3.6 01:33:19 10° N 01:38:42 72° WNW 01:39:31 61° SW
Cosmos 2221 3.2 01:40:19 42° NW 01:40:19 42° NW 01:43:47 10° N
AQUA 4.3 01:35:08 10° NNE 01:39:48 54° E 01:40:53 44° SE
Cosmos 2322 3.8 01:38:31 53° S 01:39:49 72° ESE 01:45:32 10° NNE
Cosmos 2279 Rocket 4.0 01:35:37 10° NNW 01:41:46 60° W 01:42:58 51° SW
Cosmos 2333 4.4 01:42:17 48° W 01:43:18 55° WNW 01:48:49 10° NNE
IRIDIUM 103 4.2 01:39:24 10° N 01:44:38 74° W 01:45:26 61° SSW
Resurs 1-4 Rocket 2.0 01:39:37 10° NNE 01:44:55 76° WNW 01:45:54 59° SW
Lacrosse 5 2.0 01:44:47 54° W 01:45:46 68° NNW 01:50:54 10° NE
COSMOS 2441 4.3 01:42:05 10° NNE 01:47:01 85° ESE 01:47:56 60° S
Cosmos 2333 Rocket 2.8 01:46:53 38° W 01:48:09 44° NW 01:53:33 10° NNE
Nadezhda 4 Rocket 4.1 01:45:46 34° S 01:48:31 70° E 01:54:37 10° NNE
ALOS 3.2 01:44:23 10° NNE 01:48:49 43° E 01:50:36 29° SSE
USA 215 3.8 01:42:51 10° ENE 01:49:11 54° NNW 01:53:22 22° W
Cosmos 44 Rocket 3.4 01:48:57 61° WSW 01:49:51 80° NW 01:55:03 10° NE
Lacrosse 4 Rocket 3.9 01:50:59 11° NW 01:52:17 12° NNW 01:53:50 10° N
Cosmos 972 Rocket 4.1 01:51:41 53° WSW 01:52:45 67° WNW 01:57:53 10° NNE
Cosmos 2360 Rocket 3.1 01:51:39 31° W 01:53:06 36° NW 01:58:18 10° NNE
Molniya-1 4.3 01:52:55 51° SSW 01:54:13 80° SE 02:05:41 10° NE
Cosmos 1743 4.4 01:52:22 10° NNW 01:54:04 23° NW 01:54:04 23° NW
Sich 1 3.5 01:54:50 10° N 01:59:01 57° ENE 02:01:15 25° SSE
BlueWalker 3 2.2 01:58:05 45° NW 01:59:03 65° NNE 02:02:51 10° ESE
SAR-Lupe-1 4.1 01:57:33 10° NNE 02:01:10 74° ESE 02:01:17 73° ESE
Cosmos 2278 Rocket 2.3 01:56:21 10° NNW 02:02:04 76° ENE 02:07:44 10° SSE
Cosmos 2344 4.0 01:54:18 10° NW 02:02:38 88° SW 02:14:12 10° SE
IRIDIUM 106 4.5 01:57:49 10° NNW 02:02:53 52° W 02:03:43 47° WSW
Cosmos 2322 Rocket 3.6 02:01:19 22° WNW 02:03:17 26° NW 02:07:59 10° NNE
IDEFIX/ARIANE 42P 3.1 02:00:33 10° N 02:05:27 43° WNW 02:06:30 38° W
NOSS 3-4 (A) 3.7 02:03:50 36° W 02:05:55 55° NW 02:12:01 10° NE
NOSS 3-4 (C) 3.6 02:03:53 36° W 02:05:58 55° NW 02:12:04 10° NE
Cosmos 1743 Rocket 3.8 02:02:39 10° N 02:06:59 66° ENE 02:09:29 24° SSE
Cosmos 1538 Rocket 4.0 02:07:18 40° SSW 02:09:18 81° ESE 02:14:40 10° NNE
Cosmos 2219 Rocket 2.7 02:09:03 36° W 02:10:47 46° NW 02:16:11 10° NNE
Cosmos 1536 2.5 02:06:58 10° NNW 02:10:50 71° W 02:11:03 69° SW
Okean 3 Rocket 4.2 02:06:56 10° NNW 02:10:57 39° W 02:10:57 39° W
MSX 4.2 02:06:42 10° N 02:12:15 49° WNW 02:14:08 36° WSW
SAR-Lupe-4 3.4 02:08:42 10° N 02:12:15 77° WNW 02:12:23 75° W
Cosmos 192 4.3 02:07:50 10° NNW 02:12:45 83° ENE 02:17:39 10° SSE
Gbstr 26 Del rocket 2.8 02:13:49 59° SSW 02:14:27 73° SSE 02:18:18 10° ENE
Meteor 2-10 4.3 02:11:13 10° N 02:16:51 78° ENE 02:22:33 10° SSE
EO 1 Delta rocket 4.4 02:12:15 10° NNE 02:16:53 54° E 02:20:07 19° SSE
COBE Rocket 4.3 02:13:47 10° N 02:18:11 41° WNW 02:19:05 37° W
GP-B 3.0 02:14:32 10° N 02:18:59 81° W 02:20:37 39° S
Meteor 1-28 Rocket 3.9 02:20:07 35° WNW 02:20:07 35° WNW 02:22:49 10° NNW
SL-16 R/B 4.3 02:17:07 11° WNW 02:20:19 17° NW 02:23:56 10° N
NOSS 2-2 (E) 3.9 02:20:46 10° NW 02:25:11 72° SW 02:31:28 10° SSE
Cosmos 1726 3.0 02:25:31 10° NNW 02:27:31 28° NW 02:27:31 28° NW
BREEZE-M DEB (TANK) 3.4 02:27:07 31° W 02:28:46 85° N 02:38:27 10° E
Okean 1 3.1 02:29:45 47° SSW 02:30:43 71° W 02:34:32 10° N
Cosmos 1092 Rocket 4.0 02:26:21 16° S 02:31:21 78° E 02:37:30 10° NNE
CZ-2C R/B 3.7 02:26:44 10° NNE 02:31:38 41° E 02:36:29 10° SSE
ADEOS II 2.4 02:26:55 10° N 02:31:57 48° WNW 02:34:06 31° WSW
FENGYUN 3A 3.9 02:29:19 10° N 02:34:38 54° WNW 02:37:10 29° SW
Meteor 1-19 Rocket 4.3 02:30:32 21° S 02:34:42 88° E 02:40:46 10° NNE
Cosmos 1461 2.6 02:35:23 10° NW 02:39:11 58° SW 02:42:55 10° SSE
Cosmos 2026 Rocket 4.0 02:33:59 16° S 02:39:13 88° E 02:45:38 10° N
NOSS 2-2 (D) 3.8 02:35:13 10° NW 02:39:34 74° SW 02:45:43 10° SSE
SL-16 R/B 2.9 02:36:39 23° SSW 02:40:05 42° W 02:45:59 10° NNW
Kosmos-1783 4.3 02:42:15 23° ENE 02:42:15 23° ENE 02:43:11 10° NE
ATLAS 5 CENTAUR R/B 3.3 02:38:35 10° NNW 02:43:00 40° NE 02:48:23 10° ESE
RESURS DK-1 2.3 02:41:52 35° SW 02:43:27 70° WNW 02:47:31 10° NNE
CZ-2D R/B 3.2 02:38:56 10° N 02:43:28 29° WNW 02:45:38 22° W
Cosmos 1151 Rocket 2.9 02:40:49 22° S 02:43:31 88° E 02:47:52 10° N
Cosmos 923 Rocket 4.1 02:42:04 19° SSW 02:45:49 74° ESE 02:51:06 10° NNE
Envisat 3.2 02:44:14 10° NNE 02:49:19 73° ESE 02:54:11 11° S
Cosmos 921 Rocket 4.3 02:50:32 10° S 02:54:26 37° ESE 02:58:27 10° NE
Cosmos 1975 2.7 02:55:44 10° N 02:59:36 85° E 03:03:28 10° S
Meteor 1-27 Rocket 3.9 02:56:58 19° SSW 03:01:06 56° WNW 03:06:43 10° N
Cosmos 1371 Rocket 4.0 02:56:30 10° NNW 03:01:47 86° ENE 03:07:03 10° SSE
Cosmos 1943 Rocket 2.1 02:56:52 10° NNW 03:02:31 68° WSW 03:08:08 10° SSE
Cosmos 1340 2.5 02:59:53 10° N 03:03:20 77° ENE 03:06:46 10° SSE
ATLAS 2AS CENTAUR R/B 3.7 02:58:26 10° S 03:05:27 46° ESE 03:12:13 10° NE
Thor Agena Rocket 3.7 03:00:34 10° NNE 03:05:37 73° ESE 03:10:39 10° S
Meteor 2-4 Rocket 3.8 03:01:20 10° S 03:06:42 77° E 03:12:15 10° NNE
COSMOS 2428 3.5 03:04:40 18° WSW 03:08:17 37° NW 03:13:33 10° NNE
NOAA 11 4.2 03:03:19 10° NNE 03:08:47 88° ESE 03:14:15 10° SSW
H-2A R/B 3.9 03:04:48 10° NE 03:09:09 29° E 03:13:32 10° SSE
CZ-4 R/B 3.9 03:04:46 10° N 03:09:30 63° WNW 03:13:29 14° SSW
Cosmos 1626 2.9 03:07:41 10° SSE 03:10:51 44° E 03:14:01 10° NNE
CZ-2C R/B 4.3 03:12:51 14° W 03:13:33 14° W 03:16:24 10° NW
Cosmos 1666 Rocket 3.5 03:09:10 10° NNW 03:13:37 70° W 03:18:02 10° S
Cosmos 2237 Rocket 2.3 03:11:13 16° SW 03:15:48 68° WNW 03:21:31 10° NNE
Cosmos 1980 3.8 03:12:33 16° SW 03:17:04 63° WNW 03:22:42 10° NNE
CZ-2C R/B 4.4 03:13:25 10° N 03:17:22 24° WNW 03:20:25 14° WSW
Cosmos 2369 Rocket 3.5 03:15:17 10° NNW 03:20:41 44° NE 03:26:01 10° SE
Intercosmos 25 Rocket 3.3 03:17:26 10° NNW 03:20:43 56° W 03:25:09 10° S
S3M 4.4 03:15:56 10° N 03:22:03 67° ENE 03:28:14 10° SSE
Resurs 1-4 Rocket 4.0 03:21:04 10° NNW 03:23:51 15° NW 03:26:39 10° W
Cosmos 2112 Rocket 4.0 03:20:03 10° SSW 03:25:22 83° WNW 03:30:46 10° NNE
ALOS 3.4 03:22:00 10° N 03:25:51 26° WNW 03:28:56 14° WSW
DMSP B5D2-2 4.0 03:23:39 10° S 03:28:48 67° WSW 03:34:00 10° NNW
Lacrosse 5 3.2 03:24:45 10° WNW 03:29:27 35° N 03:34:08 10° ENE
USA 215 4.2 03:25:26 10° ENE 03:31:34 44° N 03:37:41 10° WNW
Cosmos 2333 Rocket 4.4 03:31:24 10° NW 03:34:00 13° NNW 03:36:35 10° N
Cosmos 2266 Rocket 4.3 03:28:32 10° S 03:34:34 69° E 03:40:35 10° NNE
YAOGAN 6 2.7 03:33:17 10° N 03:36:26 46° WNW 03:39:35 10° SSW
BlueWalker 3 2.6 03:33:40 10° WNW 03:37:10 34° SW 03:40:38 10° SSE
IRS-1D 3.6 03:32:19 10° N 03:37:20 66° WNW 03:42:27 10° SSW
Cosmos 2360 Rocket 4.5 03:37:12 10° NW 03:38:54 11° NNW 03:40:37 10° N
Cosmos 1842 4.5 03:37:19 10° SSE 03:40:52 43° E 03:44:27 10° NNE
USA 290 2.0 03:41:54 10° NNW 03:45:00 83° WSW 03:48:05 10° SSE
Cosmos 2278 Rocket 3.4 03:41:32 10° NW 03:45:30 20° W 03:49:27 10° SW
Cosmos 1328 Rocket 3.9 03:41:50 10° SSW 03:46:07 49° WNW 03:50:27 10° N
Cosmos 1340 Rocket 3.5 03:43:29 10° SW 03:46:59 33° WNW 03:50:33 10° N
Cosmos 2315 Rocket 4.4 03:41:57 10° N 03:48:11 72° E 03:54:21 10° SSE
NOSS 3-1 (C) 4.1 03:41:09 10° NW 03:48:25 78° SW 03:57:16 10° SSE
Cosmos 1805 4.5 03:48:04 10° NW 03:50:53 21° W 03:53:41 10° SW
Cosmos 1633 Rocket 3.7 03:47:51 10° NNW 03:51:47 34° W 03:55:42 10° SSW
Cosmos 1680 Rocket 4.0 03:47:37 10° SW 03:52:43 45° WNW 03:57:50 10° NNE
Cosmos 1553 Rocket 4.4 03:48:46 10° NNW 03:54:38 42° W 04:00:23 10° SSW
Cosmos 2219 Rocket 4.3 03:53:34 10° WNW 03:56:13 13° NNW 03:58:53 10° N
ARIANE 5 R/B 4.2 03:52:30 10° NNE 03:57:22 37° E 04:02:11 10° SSE
Cosmos 1470 2.9 03:56:22 10° N 04:00:12 78° ENE 04:04:01 10° SSE
Gbstr 26 Del rocket 3.2 03:57:09 10° W 04:01:06 55° N 04:04:46 10° ENE
Cosmos 2056 Rocket 4.2 03:57:32 10° NW 04:02:18 33° WSW 04:07:05 10° SSW
